Weather History for KLBF - October, 2012

Change the Weather History Date:

Monday, October 22, 2012

  Actual Average Record
Temperature  
Mean Temperature 49 °F 47 °F  
Max Temperature 56 °F 62 °F 87 °F (2003)
Min Temperature 42 °F 31 °F 14 °F (1936)
Degree Days  
Heating Degree Days 16 18  
Month to date heating degree days 374 315  
Since 1 July heating degree days 509 486  
Cooling Degree Days 0 0  
Month to date cooling degree days 2 0  
Year to date cooling degree days 1245 765  
Moisture  
Dew Point 43 °F    
Average Humidity 75    
Maximum Humidity 89    
Minimum Humidity 61    
Precipitation  
Precipitation 0.00 in 0.05 in 1.32 in (1906)
Month to date precipitation 0.17 1.18  
Year to date precipitation 9.51 18.81  
Snow  
Snow 0.00 in 0.10 in 4.20 in (2009)
Month to date snowfall 0.9 1.2  
Since 1 July snowfall 0.9 1.4  
Since 1 September snowfall 0.9 1.4  
Snow Depth 0.00 in    
Sea Level Pressure  
Sea Level Pressure 29.87 in    
Wind  
Wind Speed 7 mph (NNE)    
Max Wind Speed 14 mph    
Max Gust Speed 17 mph    
Visibility 10 miles    
Events      
T = Trace of Precipitation, MM = Missing Value Source: NWS Daily Summary

Daily Weather History Graph

Daily Weather History Graph

Search for Another Location

Airport or City:

Trip Planner

Search our weather history database for the weather conditions in past years. The results will help you decide how hot, cold, wet, or windy it might be!

Date:

Astronomy

Oct. 22, 2012 Rise Set
Actual Time 8:02 AM CDT 6:50 PM CDT
Civil Twilight 7:34 AM CDT 7:18 PM CDT
Nautical Twilight 7:02 AM CDT 7:50 PM CDT
Astronomical Twilight 6:30 AM CDT 8:22 PM CDT
Moon 3:03 PM CDT (10/22) 12:48 AM CDT (10/22)
Length of Visible Light 11h 44m
Length of Day
10h 48m
First Quarter, 56% of the Moon is Illuminated
Oct 22
First Quarter
Oct 29
Full
Nov 6
Last Quarter
Nov 13
New
Nov 20
First Quarter

Hourly Weather History & Observations

Time (CDT) Temp. Windchill Dew Point Humidity Pressure Visibility Wind Dir Wind Speed Gust Speed Precip Events Conditions
12:53 AM 46.9 °F - 39.0 °F 74% 29.86 in 10.0 mi NE 5.8 mph - N/A   Clear
1:53 AM 45.0 °F 42.6 °F 39.9 °F 82% 29.86 in 10.0 mi NNE 4.6 mph - N/A   Clear
2:53 AM 43.0 °F 41.3 °F 39.9 °F 89% 29.86 in 10.0 mi NNW 3.5 mph - N/A   Partly Cloudy
3:06 AM 44.6 °F 40.7 °F 41.0 °F 87% 29.89 in 10.0 mi North 6.9 mph - N/A   Mostly Cloudy
3:35 AM 44.6 °F 40.2 °F 41.0 °F 87% 29.89 in 9.0 mi North 8.1 mph - N/A   Scattered Clouds
3:42 AM 44.6 °F 41.4 °F 42.8 °F 93% 29.89 in 9.0 mi North 5.8 mph - N/A   Mostly Cloudy
3:53 AM 46.0 °F 43.1 °F 42.1 °F 86% 29.86 in 9.0 mi North 5.8 mph - N/A   Overcast
4:53 AM 46.0 °F 43.1 °F 42.1 °F 86% 29.87 in 9.0 mi Variable 5.8 mph - N/A   Overcast
5:53 AM 46.0 °F 41.4 °F 42.1 °F 86% 29.87 in 10.0 mi North 9.2 mph - N/A   Overcast
6:53 AM 46.4 °F 44.3 °F 41.0 °F 81% 29.90 in 10.0 mi North 4.6 mph - N/A   Overcast
7:53 AM 46.0 °F 41.9 °F 42.1 °F 86% 29.91 in 10.0 mi North 8.1 mph 16.1 mph N/A   Overcast
8:53 AM 46.9 °F - 42.1 °F 83% 29.92 in 9.0 mi North 4.6 mph - N/A   Overcast
9:53 AM 48.9 °F - 42.1 °F 77% 29.94 in 10.0 mi NNE 11.5 mph - N/A   Overcast
10:53 AM 48.9 °F - 42.1 °F 77% 29.95 in 10.0 mi North 9.2 mph - N/A   Overcast
11:45 AM 51.8 °F - 42.8 °F 71% 29.92 in 10.0 mi North 11.5 mph 17.3 mph N/A   Overcast
11:53 AM 52.0 °F - 43.0 °F 71% 29.91 in 10.0 mi North 10.4 mph - N/A   Overcast
12:05 PM 51.8 °F - 42.8 °F 71% 29.92 in 10.0 mi North 8.1 mph - N/A   Overcast
12:39 PM 53.6 °F - 44.6 °F 72% 29.91 in 10.0 mi North 5.8 mph - N/A   Overcast
12:53 PM 53.1 °F - 44.1 °F 71% 29.91 in 10.0 mi North 8.1 mph - N/A   Overcast
1:53 PM 53.1 °F - 44.1 °F 71% 29.88 in 10.0 mi NNE 5.8 mph - N/A   Overcast
2:53 PM 53.1 °F - 44.1 °F 71% 29.87 in 10.0 mi North 5.8 mph - N/A   Overcast
3:53 PM 53.1 °F - 45.0 °F 74% 29.84 in 10.0 mi Calm Calm - N/A   Overcast
4:31 PM 53.6 °F - 44.6 °F 72% 29.83 in 10.0 mi NE 5.8 mph - N/A   Overcast
4:53 PM 55.0 °F - 44.1 °F 67% 29.82 in 10.0 mi NNE 6.9 mph - N/A   Mostly Cloudy
5:08 PM 55.4 °F - 44.6 °F 67% 29.83 in 10.0 mi NE 5.8 mph - N/A   Mostly Cloudy
5:53 PM 55.0 °F - 43.0 °F 64% 29.82 in 10.0 mi ENE 6.9 mph - N/A   Overcast
6:53 PM 54.0 °F - 43.0 °F 66% 29.82 in 10.0 mi East 8.1 mph - N/A   Overcast
7:53 PM 54.0 °F - 42.1 °F 64% 29.82 in 10.0 mi East 5.8 mph - N/A   Overcast
8:53 PM 54.0 °F - 43.0 °F 66% 29.81 in 10.0 mi ENE 4.6 mph - N/A   Overcast
9:53 PM 53.1 °F - 45.0 °F 74% 29.81 in 10.0 mi ESE 11.5 mph - N/A   Overcast